TimeCDT,TemperatureF,Dew PointF,Humidity,Sea Level PressureIn,VisibilityMPH,Wind Direction,Wind SpeedMPH,Gust SpeedMPH,PrecipitationIn,Events,Conditions,WindDirDegrees,DateUTC
12:53 AM,66.0,54.0,65,30.01,10.0,Calm,Calm,-,N/A,,Clear,0,2012-03-26 05:53:00
1:53 AM,64.9,54.0,68,30.01,10.0,SSE,3.5,-,N/A,,Clear,150,2012-03-26 06:53:00
2:53 AM,64.9,53.1,65,30.01,10.0,South,4.6,-,N/A,,Clear,170,2012-03-26 07:53:00
3:53 AM,61.0,53.1,75,30.00,10.0,South,3.5,-,N/A,,Clear,190,2012-03-26 08:53:00
4:53 AM,61.0,53.1,75,29.99,10.0,Calm,Calm,-,N/A,,Clear,0,2012-03-26 09:53:00
5:53 AM,60.1,53.1,78,30.00,10.0,Calm,Calm,-,N/A,,Clear,0,2012-03-26 10:53:00
6:53 AM,60.1,53.1,78,30.01,10.0,Calm,Calm,-,N/A,,Clear,0,2012-03-26 11:53:00
7:53 AM,59.0,53.1,81,30.03,10.0,Calm,Calm,-,N/A,,Partly Cloudy,0,2012-03-26 12:53:00
8:53 AM,64.9,57.0,75,30.03,10.0,Calm,Calm,-,N/A,,Partly Cloudy,0,2012-03-26 13:53:00
9:53 AM,71.1,55.9,59,30.05,10.0,South,8.1,-,N/A,,Partly Cloudy,180,2012-03-26 14:53:00
10:53 AM,75.9,57.9,54,30.05,10.0,South,9.2,-,N/A,,Partly Cloudy,170,2012-03-26 15:53:00
11:53 AM,78.1,57.9,50,30.05,10.0,South,12.7,-,N/A,,Partly Cloudy,180,2012-03-26 16:53:00
12:53 PM,79.0,57.0,47,30.04,10.0,SSW,11.5,19.6,N/A,,Partly Cloudy,200,2012-03-26 17:53:00
1:53 PM,81.0,57.9,45,30.01,10.0,South,11.5,16.1,N/A,,Partly Cloudy,190,2012-03-26 18:53:00
2:53 PM,82.0,57.0,42,29.98,10.0,South,8.1,18.4,N/A,,Scattered Clouds,170,2012-03-26 19:53:00
3:53 PM,82.0,57.0,42,29.96,10.0,SSE,12.7,-,N/A,,Scattered Clouds,160,2012-03-26 20:53:00
4:53 PM,81.0,59.0,47,29.94,10.0,SSE,13.8,20.7,N/A,,Scattered Clouds,150,2012-03-26 21:53:00
5:53 PM,80.1,57.9,47,29.94,10.0,SSE,10.4,20.7,N/A,,Mostly Cloudy,150,2012-03-26 22:53:00
6:53 PM,78.1,55.9,46,29.94,10.0,South,10.4,-,N/A,,Mostly Cloudy,170,2012-03-26 23:53:00
7:53 PM,73.9,57.0,55,29.94,10.0,SSE,9.2,-,N/A,,Mostly Cloudy,150,2012-03-27 00:53:00
8:53 PM,70.0,57.9,65,29.94,10.0,SE,6.9,-,N/A,,Mostly Cloudy,140,2012-03-27 01:53:00
9:53 PM,70.0,57.9,65,29.96,10.0,SSE,5.8,-,N/A,,Mostly Cloudy,150,2012-03-27 02:53:00
10:53 PM,69.1,57.9,68,29.97,10.0,SSW,8.1,-,N/A,,Mostly Cloudy,210,2012-03-27 03:53:00
11:53 PM,66.0,57.9,75,29.97,10.0,South,8.1,-,N/A,,Mostly Cloudy,190,2012-03-27 04:53:00